Probability
0 0 0 0 0 0 0 0 0 0 0 0 0 0 0 0 0 0 0 0 0 0 0 0 0 0 0 0 0 0 0 0 0 0 0 0 0 0 0 0 0 0 0 0 0 0 0 0 0
0 0 0 0 0 0 0 0 0 0 0 0 0 0 0 0 0 0 0 0 0 0 0 0 0 0 0 0 0 0 0 0 0 0 0 0 0 0 0 0 0 0 0 0 0 0 0 0 0
0 0 0 0 0 0 0 0 0 0 0 0 0 0 0 0 0 0 0 0 0 0 0 0 0 0 0 0 0 0 0 0 0 0 0 0 0 0 0 0 0 0 0 0 0 0 0 0 0
0 0 0 0 0 0 0 0 0 0 0 0 0 0 0 0 0 0 0 0 0 0 0 0 0 0 0 0 0 0 0 0 0 0 0 0 0 0 0 0 0 0 0 0 0 0 0 0 0
0 0 0 0 0 0 0 0 0 0 0 0 0 1 1 1 0 0 0 0 0 0 0 0 0 0 0 0 0 0 0 0 0 0 0 0 0 0 0 0 0 0 0 0 1 1 1 1 0
0 0 0 0 0 0 0 0 0 0 0 0 0 1 2 2 1 0 0 0 0 1 2 1 0 0 0 0 0 0 0 0 0 0 0 0 0 0 0 0 0 0 0 1 2 2 2 1 0
0 0 0 0 0 0 0 0 0 0 0 0 0 0 2 2 1 0 0 0 1 3 4 2 1 0 0 0 0 0 0 0 0 0 0 0 0 0 0 0 0 0 0 1 2 2 1 0 0
0 0 0 0 0 0 0 0 0 0 0 0 0 0 1 2 1 0 1 2 3 4 4 3 1 0 0 0 0 0 0 0 0 0 0 0 0 0 0 0 0 0 0 0 1 1 0 0 0
0 0 0 0 0 0 0 0 0 0 0 0 0 0 1 1 0 1 2 4 5 4 4 3 1 0 0 0 0 0 0 0 0 0 0 0 0 0 0 0 0 0 0 0 0 0 0 0 0
0 0 0 0 0 0 0 0 0 0 0 0 0 0 1 0 0 1 3 5 6 5 4 2 1 0 0 0 0 0 0 0 0 0 0 0 0 0 0 0 0 0 0 0 0 0 0 0 0
0 0 0 0 0 0 0 0 0 0 0 0 0 0 0 0 0 2 3 4 6 6 3 1 0 0 0 0 0 0 0 0 0 0 0 0 0 0 0 0 0 0 0 0 0 0 0 0 0
0 0 0 0 0 0 0 0 0 0 0 0 0 0 0 0 0 1 2 4 5 4 2 1 0 0 0 0 0 0 0 0 0 0 0 0 0 0 0 0 0 0 0 0 0 0 0 0 0
0 0 0 0 0 0 0 0 0 0 0 0 0 0 0 0 0 0 1 2 3 2 1 0 0 0 0 0 0 0 0 0 0 0 0 0 0 0 0 0 0 0 0 0 0 0 0 0 0
0 0 0 0 0 0 0 0 0 0 0 0 0 0 0 0 0 0 0 1 1 0 0 0 0 0 0 0 0 0 0 0 0 0 0 0 0 0 0 0 0 0 0 0 0 0 0 0 0
0 0 0 0 0 0 0 0 0 0 0 0 0 0 0 0 0 0 0 0 0 0 0 0 0 0 0 0 0 0 0 0 0 0 0 0 0 0 0 0 0 0 0 0 0 0 0 0 0
0 0 0 0 0 0 0 0 0 0 0 0 0 0 0 0 0 0 0 0 0 0 0 0 0 0 0 0 0 0 0 0 0 0 0 0 0 0 0 0 0 0 0 0 0 0 0 0 0
0 0 0 0 0 0 0 0 0 0 0 0 0 0 0 0 0 0 0 0 0 0 0 0 0 0 0 0 0 0 0 0 0 0 0 0 0 0 0 0 0 0 0 0 0 0 0 0 0
0 0 0 0 0 0 0 0 0 0 0 0 0 0 0 0 0 0 0 0 0 0 0 0 0 0 0 0 0 0 0 0 0 0 0 0 0 0 0 0 0 0 0 0 0 0 0 0 0
0 0 0 0 0 0 0 0 0 0 0 0 0 0 0 0 0 0 0 0 0 0 0 0 0 0 0 0 0 0 0 0 0 0 0 0 0 0 0 0 0 0 0 0 0 0 0 0 0
0 0 0 0 0 0 0 0 0 0 0 0 0 0 0 0 0 0 0 0 0 0 0 0 0 0 0 0 0 0 0 0 0 0 0 0 0 0 0 0 0 0 0 0 0 0 0 0 0
0 0 0 0 0 0 0 0 0 0 0 0 0 0 0 0 0 0 0 0 0 0 0 0 0 0 0 0 0 0 0 0 0 0 0 0 0 0 0 0 0 0 0 0 0 0 0 0 0
0 0 0 0 0 0 0 0 0 0 0 0 0 0 0 0 0 0 0 0 0 0 0 0 0 0 0 0 0 0 0 0 0 0 0 0 0 0 0 0 0 0 0 0 0 0 0 0 0
0 0 0 0 0 0 0 0 0 0 0 0 0 0 0 0 0 0 0 0 0 0 0 0 0 0 0 0 0 0 0 0 0 0 0 0 0 0 0 0 0 0 0 0 0 0 0 0 0
0 0 0 0 0 0 0 0 0 0 0 0 0 0 0 0 0 0 0 0 0 0 0 0 0 0 0 0 0 0 0 0 0 0 0 0 0 0 0 0 0 0 0 0 0 0 0 0 0
0 0 0 0 0 0 0 0 0 0 0 0 0 0 0 0 0 0 0 0 0 0 0 0 0 0 0 0 0 0 0 0 0 0 0 0 0 0 0 0 0 0 0 0 0 0 0 0 0
0 0 0 0 0 0 0 0 0 0 0 0 0 0 0 0 0 0 0 0 0 0 0 0 0 0 0 0 0 0 0 0 0 0 0 0 0 0 0 0 0 0 0 0 0 0 0 0 0
0 0 0 0 0 0 0 0 0 0 0 0 0 0 0 0 0 0 0 0 0 0 0 0 0 0 0 0 0 0 0 0 0 0 0 0 0 0 0 0 0 0 0 0 0 0 0 0 0
0 0 0 0 0 0 0 0 0 0 0 0 0 0 0 0 0 0 0 0 0 0 0 0 0 0 0 0 0 0 0 0 0 0 0 0 0 0 0 0 0 0 0 0 0 0 0 0 0
0 0 0 0 0 0 0 0 0 0 0 0 0 0 0 0 0 0 0 0 0 0 0 0 0 0 0 0 0 0 0 0 0 0 0 0 0 0 0 0 0 0 0 0 0 0 0 0 0
0 0 0 0 0 0 0 0 0 0 0 0 0 0 0 0 0 0 0 0 0 0 0 0 0 0 0 0 0 0 0 0 0 0 0 0 0 0 0 0 0 0 0 0 0 0 0 0 0
Wind_Speed
9 5 1 3 4 3 1 2 1 1 2 2 4 7 7 5 3 4 1 3 4 4 3 3 5 7 8 9 9 9 9 10 10 10 10 10 10 10 10 10 9 10 10 10 10 10 9 10 10
4 2 3 4 4 2 2 2 1 0 3 3 5 6 6 5 3 4 2 2 5 5 4 4 6 7 8 8 9 9 9 10 10 10 10 10 9 9 9 9 9 9 9 10 10 10 9 9 9
2 1 4 4 3 4 3 2 2 1 2 3 5 5 5 4 3 2 2 4 5 5 4 4 7 7 8 8 9 9 10 10 9 9 9 9 9 9 9 9 9 9 9 9 9 9 9 9 9
2 3 4 4 2 2 3 2 2 2 3 5 5 6 3 2 1 2 4 6 6 5 4 5 8 8 8 8 9 9 9 9 9 9 9 9 10 9 9 9 9 9 8 8 8 8 9 9 9
3 4 3 1 2 1 0 0 2 2 1 3 4 5 3 2 3 6 6 6 7 5 4 5 7 8 8 8 9 9 10 9 9 9 9 9 10 10 10 9 9 9 8 8 8 8 9 10 10
3 4 3 2 2 0 0 1 2 2 2 3 4 5 3 2 4 5 6 5 6 6 5 5 7 7 8 8 9 9 10 9 9 9 9 10 10 10 10 10 9 8 8 8 8 9 10 10 10
4 3 3 3 2 1 0 1 2 2 2 1 2 6 3 1 3 4 5 6 6 5 5 4 4 6 7 8 9 9 9 9 9 9 9 9 9 10 10 10 10 9 9 8 8 9 10 10 10
3 4 2 2 3 2 1 1 1 2 1 1 2 6 5 4 3 5 5 5 5 5 4 4 4 4 4 5 8 9 9 9 9 9 9 9 9 9 9 8 10 9 9 9 8 9 9 10 10
3 4 2 3 3 2 1 1 1 2 3 2 3 1 3 7 6 6 5 4 4 4 4 4 4 4 4 4 5 6 7 8 8 7 9 8 4 4 5 7 8 9 8 8 9 9 10 10 10
4 3 3 2 3 3 2 2 2 2 2 1 2 3 5 7 7 7 6 5 4 4 3 3 4 4 3 3 3 3 3 3 3 3 4 3 3 3 4 7 8 8 8 7 8 8 8 7 4
3 3 2 1 2 2 2 1 1 4 2 4 5 6 7 6 6 7 6 6 5 4 4 3 3 3 3 2 2 2 2 2 2 3 3 3 3 3 3 2 4 4 6 4 4 4 3 3 3
3 1 1 1 0 1 2 2 1 2 5 4 6 8 8 8 7 7 7 6 5 4 4 4 3 3 3 3 2 2 2 1 1 1 2 2 2 2 2 2 2 2 2 3 2 2 3 3 3
2 1 1 1 2 2 2 1 2 3 3 3 5 7 8 8 7 5 4 5 5 5 4 4 4 4 3 3 2 2 1 2 1 1 1 2 2 1 2 1 2 2 2 2 2 2 2 2 3
2 2 1 1 0 1 2 1 1 4 3 4 6 7 7 8 7 5 4 5 6 5 4 4 4 4 4 3 2 2 2 1 1 1 1 2 1 2 2 1 2 2 2 2 1 2 2 2 2
3 2 2 1 1 1 2 2 4 5 4 4 6 6 7 7 7 7 7 7 6 6 5 5 5 4 4 4 3 2 2 2 1 1 1 1 2 2 2 2 1 1 1 2 2 2 2 2 3
2 2 1 2 1 1 2 6 5 4 5 5 5 6 6 7 7 7 7 6 5 5 6 5 4 5 4 4 3 2 2 2 2 1 1 2 2 2 2 2 1 1 1 1 2 1 2 2 2
2 1 3 3 2 1 3 7 5 4 5 6 6 7 7 6 6 6 7 6 6 6 6 6 5 6 5 4 3 2 2 2 2 1 1 2 2 2 2 1 1 1 1 1 1 1 2 2 2
3 3 3 4 2 2 4 8 7 5 6 7 7 7 7 8 9 7 7 7 6 5 5 5 5 6 5 4 2 2 2 1 1 1 1 2 2 2 2 2 1 1 1 1 1 1 2 2 2
3 3 3 4 2 2 6 9 10 6 6 8 8 8 9 10 7 5 6 6 5 5 5 6 6 5 5 4 3 3 2 2 1 1 2 2 2 2 2 2 1 1 1 1 1 1 2 2 2
2 2 2 2 1 2 4 9 8 7 9 9 10 10 10 7 5 5 5 5 6 7 6 6 6 6 6 4 3 3 3 2 2 1 1 2 2 2 2 2 2 1 2 2 1 2 1 1 1
2 3 3 2 3 1 3 7 5 6 6 6 7 8 8 9 9 7 7 7 6 6 7 6 7 6 6 5 3 2 2 1 1 2 2 2 2 2 2 2 2 2 2 2 2 2 2 2 0
3 2 2 1 1 3 0 5 7 5 5 7 9 8 8 8 8 8 8 7 8 7 6 6 6 6 6 5 5 5 4 4 4 3 2 2 2 2 2 2 3 2 2 2 2 1 1 3 2
3 0 1 1 1 2 1 3 10 3 6 9 9 9 9 8 9 9 10 9 8 6 6 6 6 6 6 7 7 6 4 3 2 2 2 2 1 2 2 2 2 2 2 2 2 1 1 1 2
1 3 4 4 3 3 4 4 9 5 8 7 7 8 9 8 8 8 7 6 6 5 5 5 6 6 6 7 8 8 7 5 5 4 3 3 2 2 2 2 2 2 2 2 2 2 2 2 1
2 4 4 5 3 6 2 4 12 8 7 7 7 8 8 8 8 7 7 7 7 7 7 6 7 7 7 7 8 8 8 7 7 6 5 4 3 2 3 3 3 2 2 2 2 2 2 2 2
2 4 6 4 5 5 2 7 10 6 5 5 5 5 5 6 7 8 8 8 8 8 8 8 8 7 7 7 7 7 7 5 5 6 5 5 4 4 4 3 3 3 3 3 2 2 2 2 2
3 2 3 4 0 3 6 8 11 4 4 4 4 3 5 5 6 7 7 7 8 8 9 9 9 8 7 7 6 6 6 6 6 5 4 4 3 3 4 4 3 3 3 3 3 2 2 2 2
1 4 4 4 3 4 7 6 6 6 6 5 4 5 5 4 5 5 6 7 7 7 7 7 8 8 7 7 6 5 6 6 5 5 5 5 4 4 4 4 4 3 3 3 3 2 2 3 2
3 2 3 3 3 4 4 9 8 7 5 5 6 6 5 5 5 5 5 5 5 5 6 7 7 7 6 7 6 6 6 5 5 5 6 5 5 5 5 5 4 4 4 4 3 3 3 3 3
3 5 6 5 4 4 4 11 5 4 4 4 6 5 4 5 4 4 4 4 4 6 6 7 7 7 7 7 6 6 6 6 6 6 6 5 5 5 5 5 5 4 4 4 5 4 4 4 4
Wind_Direction
330 328 47 57 59 59 214 252 196 68 50 31 65 84 96 89 103 136 110 92 107 125 123 110 93 93 89 87 91 89 85 81 79 78 78 78 75 71 69 66 64 64 65 67 67 65 66 67 66
319 340 59 65 102 154 244 257 166 138 151 117 68 73 78 75 66 95 104 96 108 110 108 105 91 93 92 90 92 91 87 84 81 78 75 74 74 72 68 65 64 65 67 67 67 66 65 67 68
303 98 85 85 129 180 202 219 152 61 73 83 75 55 78 91 83 102 125 119 107 98 90 95 91 97 98 95 93 93 89 85 80 79 77 71 71 71 68 65 64 65 67 68 67 65 64 67 67
71 60 64 88 177 218 196 204 151 96 42 52 95 83 66 46 108 121 117 114 106 92 84 93 93 97 98 97 95 94 93 88 82 77 76 72 69 66 65 64 65 64 65 65 67 67 66 67 70
70 85 86 111 209 227 296 336 112 92 77 55 94 105 94 19 85 112 114 111 108 94 84 92 91 91 91 92 93 91 90 87 83 79 74 70 69 64 61 63 64 65 64 65 67 66 67 67 71
70 78 109 184 205 184 22 343 91 73 77 60 84 109 121 76 97 113 116 109 107 103 91 88 83 85 87 89 88 87 86 84 82 80 77 72 68 66 62 61 64 65 66 68 69 68 69 68 68
108 107 152 166 175 200 273 5 94 107 92 88 120 118 137 155 123 116 114 110 104 102 96 87 83 81 80 80 80 82 82 80 79 79 77 71 66 61 60 59 63 65 64 67 70 70 70 69 68
123 109 124 150 167 205 270 51 72 95 121 30 94 137 172 188 140 112 106 105 106 105 103 97 87 82 83 81 77 77 75 71 69 68 67 66 63 59 55 55 60 62 66 64 65 69 69 67 64
87 91 179 191 181 200 169 95 17 37 89 43 32 131 162 142 131 114 103 102 106 105 106 107 100 89 86 91 84 79 76 70 67 66 66 63 56 53 49 49 57 57 62 68 65 63 66 63 60
78 139 206 202 182 177 153 136 155 79 67 66 28 42 112 133 140 138 137 141 142 138 127 118 116 108 100 101 93 86 81 75 67 68 68 64 59 50 54 48 49 48 51 58 62 62 60 60 50
81 156 178 176 159 150 138 126 157 140 197 199 182 166 152 152 151 157 158 159 163 159 146 133 134 127 118 108 108 92 90 85 72 71 66 66 62 52 48 43 38 37 39 38 43 49 47 51 56
100 91 133 152 64 129 145 143 132 192 213 195 173 165 163 169 176 178 173 168 162 158 162 155 143 136 127 120 121 119 114 104 90 76 77 82 74 61 56 47 39 38 32 31 37 50 48 53 58
121 140 81 78 68 92 103 142 173 235 228 158 150 162 175 182 187 189 176 168 166 168 171 164 153 144 139 128 132 130 132 125 123 107 91 93 99 94 79 58 51 48 44 36 39 45 51 60 55
147 131 119 106 136 121 130 265 196 243 192 160 166 180 188 191 186 178 177 184 182 179 178 167 160 150 147 142 141 151 148 144 134 123 106 106 111 108 101 78 61 50 47 40 49 60 54 54 66
108 85 5 275 218 187 121 289 228 224 174 182 190 195 197 200 191 188 191 193 191 182 178 174 168 156 152 151 153 153 155 146 137 140 125 116 110 114 112 96 72 54 48 51 48 51 64 63 57
76 73 300 273 201 181 150 256 239 191 183 207 209 208 207 207 203 197 193 193 190 179 178 178 170 160 161 164 164 160 162 156 151 150 138 128 118 117 109 101 94 80 73 65 58 51 69 59 53
59 197 237 269 229 177 194 249 252 192 198 220 222 216 215 215 211 204 194 193 188 182 179 178 173 168 169 165 165 164 164 163 158 149 140 137 124 120 118 115 108 103 88 73 68 53 88 80 60
196 212 234 239 234 188 226 253 262 224 216 229 232 225 220 221 217 205 194 190 184 180 178 178 175 176 169 159 153 150 143 153 148 154 150 141 136 133 133 125 115 109 100 83 74 79 85 97 92
174 180 228 253 234 218 239 258 263 243 231 233 230 226 224 228 220 198 192 187 178 179 182 183 181 178 168 164 168 173 179 173 173 173 161 150 144 140 136 134 133 128 129 134 116 122 101 76 89
181 184 241 276 276 243 273 274 265 240 228 225 224 223 223 223 211 199 192 188 187 188 189 192 188 183 179 179 177 179 170 173 176 170 166 167 156 154 149 153 161 156 137 111 108 134 121 105 96
232 200 216 245 325 329 322 300 268 256 235 237 231 222 216 211 208 204 199 198 195 196 193 197 193 185 183 176 157 141 123 114 142 178 192 193 170 167 167 174 168 162 152 153 153 169 148 159 138
239 222 192 195 15 290 168 291 279 251 257 242 238 229 221 212 207 204 201 200 200 205 199 199 193 184 182 175 172 173 178 183 195 188 188 188 181 175 174 175 166 159 154 159 175 177 172 154 166
207 232 157 183 168 307 265 246 280 271 257 250 239 230 223 214 207 207 205 204 203 198 196 198 192 194 186 182 180 181 190 190 171 159 170 181 190 180 173 167 162 165 163 170 170 167 157 164 168
144 58 54 49 66 285 229 202 273 237 228 245 239 229 221 216 213 212 208 201 202 195 194 191 194 201 196 190 187 187 190 182 173 177 184 191 194 192 183 168 168 171 172 176 178 173 174 183 163
81 91 35 358 351 255 225 217 252 243 231 230 239 234 224 213 208 208 203 201 201 199 199 196 196 204 201 195 195 193 192 186 187 189 192 193 191 201 198 178 178 180 182 178 172 169 187 182 169
187 145 157 198 236 278 272 239 254 255 261 258 247 238 229 216 209 210 207 202 201 202 200 196 197 204 200 199 200 197 192 191 196 195 190 197 200 203 192 184 185 187 182 177 171 172 187 171 176
153 186 164 138 51 288 270 278 296 272 275 265 258 250 241 228 217 215 212 207 203 202 201 198 197 201 200 201 197 198 195 196 198 193 187 194 193 185 177 177 177 181 178 178 172 180 188 169 175
177 149 116 135 164 269 287 269 256 266 259 267 267 257 254 245 234 224 217 213 209 204 200 195 197 201 201 197 197 200 198 200 196 184 187 187 184 176 172 177 178 181 185 179 172 177 177 165 175
165 169 157 150 171 179 268 269 230 232 244 249 253 251 247 242 236 228 222 214 207 201 195 195 197 198 200 200 198 196 198 198 191 186 189 185 181 178 179 181 181 185 188 181 176 183 173 177 184
207 197 166 172 221 204 231 268 263 237 260 255 261 263 257 245 239 229 218 209 205 205 201 200 200 201 204 199 195 198 197 189 187 190 189 181 182 183 183 180 183 189 190 186 183 187 183 183 189